Regional Weather Roundup
Issued by NWS Wakefield, VA

Home | Current Version | Previous Version | Graphics & Text | Print | Product List | Glossary On
Versions: 1 2 3 4 5 6 7 8 9 10 11 12 13 14 15 16 17 18 19 20 21 22 23 24 25 26 27 28 29 30 31 32 33 34 35 36 37 38 39 40 41 42 43 44 45 46 47 48 49 50
000
ASUS41 KAKQ 052014
RWRAKQ

REGIONAL WEATHER ROUNDUP
NATIONAL WEATHER SERVICE WAKEFIELD VA
400 PM EDT TUE MAY 05 2015

Note: "fair" indicates few or no clouds below 12,000 feet with no
significant weather and/or obstructions to visibility. * = Denotes
station may not report precipitation (e.g., rain,snow,etc.),
thunder or fog.

VAZ042-051-052>054-056-052100-
NORTHERN VIRGINIA

CITY           SKY/WX    TMP DP  RH WIND       PRES   REMARKS
WASH NATIONAL  MOSUNNY   84  60  44 S6        30.19F
DULLES         PTSUNNY   82  56  40 CALM      30.19F
FORT BELVOIR   SUNNY     85  57  38 S6        30.18F
QUANTICO       MOSUNNY   80  64  58 S9        30.19F
FREDERICKSBRG* MOSUNNY   89  58  34 SE5       30.18F
STAFFORD*      PTSUNNY   83  50  31 SE5       30.23F
WARRENTON      SUNNY     89  59  36 S3        30.18F
CULPEPER*      MOSUNNY   84  55  36 SE3       30.19F
MANASSAS*      MOSUNNY   84  54  34 S5        30.19F
LEESBURG*      MOSUNNY   82  59  44 CALM      30.21F
WINCHESTER     CLOUDY    70  55  60 CALM      30.24R
FRONT ROYAL*   CLOUDY    64  63  94 S8        30.25R
LURAY*         LGT RAIN  68  63  83 NE5       30.25S
$$

VAZ048-049-060>072-079>083-052100-
CENTRAL AND SOUTH CENTRAL VIRGINIA

CITY           SKY/WX    TMP DP  RH WIND       PRES   REMARKS
RICHMOND       MOSUNNY   85  58  39 S10       30.21F
CHESTERFIELD*  FAIR      84  55  37 S10       30.23F
PETERSBURG*    SUNNY     85  53  32 S7        30.23F
HANOVER        SUNNY     84  59  42 SE8       30.22F
TAPPAHANNOCK*  SUNNY     85  52  32 S3        30.22F
QUINTON*       FAIR      83  57  41 S8        30.22F
CHARLOTTSVILLE PTSUNNY   82  56  40 S8        30.19F
GORDONSVILLE*  MOCLDY    84  55  36 S5        30.18F
ORANGE*        MOSUNNY   84  55  37 SW6G17    30.20F
LOUISA*        MOSUNNY   84  55  37 SE6       30.19F
BUMPASS*       FAIR      84  57  38 E3        30.20F
FARMVILLE*     SUNNY     86  52  31 SE6       30.20F
CREWE*         FAIR      83  58  41 S10       30.22F
FORT PICKETT*  FAIR      82  57  41 SW8       30.24F
CHASE CITY*    FAIR      85  62  45 S6        30.23F
CLARKSVILLE*   FAIR      81  59  47 S7        30.23F
SOUTH HILL*    SUNNY     81  59  47 S9        30.30F
LAWRENCEVILLE* FAIR      83  59  45 SW9       30.24F
EMPORIA*       SUNNY     81  55  41 SE9G16    30.26F
$$

VAZ088>098-052100-
SOUTHEAST VIRGINIA

CITY           SKY/WX    TMP DP  RH WIND       PRES   REMARKS
NORFOLK        SUNNY     83  51  33 SW12G21   30.24F
VIRGINIA BEACH MOSUNNY   84  54  35 S13       30.24F
NORFOLK NAVAL  MOSUNNY   86  54  33 S12G20    30.25F
WEST POINT*    SUNNY     87  51  28 S7        30.23F
SALUDA*        FAIR      83  59  43 SW5       30.21F
NEWPORT NEWS   SUNNY     85  57  38 SW13      30.24F
LANGLEY AFB    SUNNY     81  56  42 SW13G20   30.22F
FORT EUSTIS    SUNNY     81  58  45 S9        30.22F
WILLIAMSBURG*  SUNNY     88  59  37 S8        30.24F
HR EXEC AP*    FAIR      84  55  37 S10G17    30.26S
FRANKLIN*      SUNNY     82  56  40 S9        30.25F
WAKEFIELD      SUNNY     83  55  38 SW10G16   30.24F
$$

VAZ020-022-025-037-045-052100-
WEST CENTRAL AND SOUTHWEST VIRGINIA

CITY           SKY/WX    TMP DP  RH WIND       PRES   REMARKS
STAUNTON*      CLOUDY    72  60  66 NE6       30.25F
WAYNESBORO*    CLOUDY    75  56  53 N8        30.25S
HOT SPRINGS VA CLOUDY    71  45  39 W8        30.34F
LYNCHBURG      PTSUNNY   82  53  36 S9        30.23F
DANVILLE       SUNNY     85  58  39 CALM      30.23F
SOUTH BOSTON*  FAIR      83  56  40 MISG      30.23F
MARTINSVILLE   CLOUDY    82  54  37 SE5       30.26F
ROANOKE        PTSUNNY   82  47  29 S5        30.24F
BLACKSBURG     CLOUDY    78  46  31 CALM      30.30F
DUBLIN*        CLOUDY    79  49  34 NW3       30.29F
MARION*        PTSUNNY   79  44  29 CALM      30.32F
HILLSVILLE*    CLOUDY    75  48  38 NE3       30.31F
RICHLANDS*     CLOUDY    74  51  45 N3        30.32F
WISE*          CLOUDY    75  43  31 CALM      30.33F
ABINGDON*      SUNNY     81  46  28 SW5       30.28F
$$

MDZ021>025-VAZ099-100-052100-
SOUTHERN MARYLAND AND THE DELMARVA PENINSULA

CITY           SKY/WX    TMP DP  RH WIND       PRES   REMARKS
PATUXENT RIVER MOSUNNY   74  59  59 SE13      30.21F
BAY BRIDGE APT   N/A    N/A N/A N/A S5        30.21F
LEONARDTOWN    SUNNY     82  52  34 S3        30.22F
DOVER          MOSUNNY   84  55  37 W9        30.17F
GEORGETOWN     MOSUNNY   84  57  39 SW9       30.20F
EASTON         MOSUNNY   84  57  39 SW3       30.24F
CAMBRIDGE      SUNNY     81  55  41 SW5       30.20F
SALISBURY      SUNNY     81  57  43 S8        30.21F
OCEAN CITY     SUNNY     69  57  65 S9        30.22F
WALLOPS ISLAND SUNNY     74  59  59 S15       30.24F
ACCOMACK*      SUNNY     81  59  47 SW15G21   30.24F
$$

NCZ012>017-030>032-052100-
NORTH CENTRAL AND EASTERN NORTH CAROLINA

CITY           SKY/WX    TMP DP  RH WIND       PRES   REMARKS
ROANOKE RAPIDS FAIR      79  57  47 SW13      30.26S
RALEIGH        MOSUNNY   82  58  43 VRB3      30.26F
ELIZABETH CITY MOSUNNY   79  51  37 S13       30.28F
AHOSKIE*       SUNNY     80  53  39 S3        30.26F
EDENTON*       MOSUNNY   80  52  38 S13       30.28F
CURRITUCK*     MOSUNNY   79  47  31 S3        30.28F
KILL DEVIL HLS MOSUNNY   76  48  36 S12G20    30.29S
MANTEO         MOSUNNY   73  53  49 S17       30.31S
CAPE HATTERAS  MOSUNNY   73  56  54 S9        30.33F
TARBORO*       FAIR      82  53  37 S7        30.28F
GOLDSBORO      MOSUNNY   81  53  36 SE2       30.25F
WASHINGTON     SUNNY     80  50  34 S7        30.28F
GREENVILLE     SUNNY     82  50  32 S9        30.28F
NEW BERN       SUNNY     80  48  32 S13G18    30.31F
WILMINGTON     MOSUNNY   75  53  46 E7G20     30.31F
$$

VAZ048-052100-
ELSEWHERE

CITY           SKY/WX    TMP DP  RH WIND       PRES   REMARKS
HARRISBURG PA  PTSUNNY   77  59  53 NW6       30.20F
BALTIMORE      PTSUNNY   82  57  42 E7        30.19F
ANNAPOLIS      SUNNY     71  60  68 SE8       30.20F
ANDREWS AFB    SUNNY     86  57  36 W7        30.19F
PHILADELPHIA   PTSUNNY   83  55  38 W13       30.17F
HENDERSON NC   SUNNY     81  54  39 SW8       30.26F
GREENSBORO     MOSUNNY   82  56  40 S12       30.25F
ROCKY MOUNT    SUNNY     82  54  37 S9G17     30.27F
$$

VAZ100-052100-
MARINE

STATION/POSITION TIME  TEMP    WIND        PRES    WAVE   SWELL
                       AIR SEA DIR/SP/G            HT/PER HT/PER
                 (UTC) (F)     (DEG/KT/KT) (MB)    (FT/S) (FT/S)
BRANDYWINE LGT   1900   67 57  170/ 12/ 13 1023.3F
CAPE MAY NJ      1900   73 61  170/  8/  9 1023.0F
LEWES DE         1900   77 58  120/  7/  9 1023.0F
15NM E FENWICK I 1950   59 54              1023.0F   3/ 5
OCEAN-CITY-INLET 1900   59 61  210/ 12/ 15 1023.6F
WACHAPREAGUE VA  1900   77 72  210/ 13/ 17 1024.2F
THOMAS POINT MD  2000   68 60  190/  5/  5 1023.3F
GOOSES REEF MD   2000   68 62                N/A     1
COVE POINT MD    1900   67     170/  7/  8 1024.4F
SOLOMONS ISLAND  1900      64                N/A
BISHOPS HEAD MD  1900   68 71  140/ 10/ 10 1023.6F
PINEY POINT MD   1900          160/ 10/ 10   N/A
CAMBRIDGE MD     1900   75 63  330/  6/  7 1023.3F
LEWISETTA VA     1900   68 61              1023.4F
RAPPAHANNOCK LGT 1900          180/ 13/ 14 1024.8F
YORK RVR RNG VA  1900   74     220/ 16/ 17 1023.5F
YORKTOWN VA      1900   79 61  210/ 11/ 18 1023.7F
JAMESTOWN VA     2000   79 67  220/ 10/ 14 1022.7F
DOMINION TERM VA 1900   75     230/ 14/ 15 1024.5F
KIPTOPEKE VA     1900      65  230/  7/  8   N/A
CHES BAY BRIDGE  1900   75 63  210/ 10/ 12 1024.1F
CAPE HENRY VA    1918   80     200/  9/ 13 1023.2F
CHESAPEAKE LGHT  1900   68     180/ 23/ 24 1025.1F
WILLOUBY STN VA  1900   76     240/  8/ 10 1025.2F
S CRANEY ISL VA  1900          230/  8/ 13 1024.5F
CAPE HENRY BUOY  1928      61                N/A     2/11
1ST LANDING BUOY 2000      63                N/A     1/ 3
CAPE CHARLES BUO 1926      61                N/A     2/11   2/11
OFFSHORE WE BUOY 1911      56                N/A     2/ 8   2/ 8
64NM E OF VA BCH 1950   63 59  200/ 10/ 12 1025.6F   2/11   2/11
DUCK PIER NC     1900   74 55  190/ 16/ 19 1025.0F
44056 DUCK FRF   1911      60                N/A     2/11
OREGON INLET NC  1900   71 70  190/ 11/ 12 1027.0F
HATTERAS NC      1900   74 67  160/  8/ 10 1027.1F
DIAMOND SHLS NC  1950   73 77  150/ 12/ 16 1026.9F   3/ 8   2/ 8
CAPE LOOKOUT NC  2000   71     130/  7/  7 1026.1F
$$


USA.gov is the U.S. government's official web portal to all federal, state and local government web resources and services.